Weather History for Fort Smith, AR

Change the Weather History Date:

Saturday, March 16, 2013

  Actual Average Record
Temperature  
Mean Temperature 67 °F 53 °F  
Max Temperature 82 °F 65 °F 86 °F (1908)
Min Temperature 51 °F 41 °F 24 °F (1900)
Degree Days  
Heating Degree Days 0 12  
Month to date heating degree days 235 231  
Since 1 July heating degree days 2558 2904  
Cooling Degree Days 2 0  
Month to date cooling degree days 2 0  
Year to date cooling degree days 3 1  
Growing Degree Days 16 (Base 50)    
Moisture  
Dew Point 48 °F    
Average Humidity 58    
Maximum Humidity 83    
Minimum Humidity 33    
Precipitation  
Precipitation 0.00 in 0.13 in 0.92 in (2014)
Month to date precipitation 1.66 1.91  
Year to date precipitation 10.09 7.48  
Sea Level Pressure  
Sea Level Pressure 29.78 in    
Wind  
Wind Speed 4 mph (South)    
Max Wind Speed 12 mph    
Max Gust Speed 17 mph    
Visibility 10 miles    
Events      
T = Trace of Precipitation, MM = Missing Value Source: NWS Daily Summary

Daily Weather History Graph

Daily Weather History Graph

Search for Another Location

Airport:

Trip Planner

Search our weather history database for the weather conditions in past years. The results will help you decide how hot, cold, wet, or windy it might be!

Date:

Astronomy

Mar. 16, 2013 Rise Set
Actual Time 7:26 AM CDT 7:26 PM CDT
Civil Twilight 7:01 AM CDT 7:51 PM CDT
Nautical Twilight 6:31 AM CDT 8:20 PM CDT
Astronomical Twilight 6:01 AM CDT 8:50 PM CDT
Moon 10:07 AM CDT (3/16) No Moon Set
Length of Visible Light 12h 50m
Length of Day
11h 59m
Waxing Crescent, 23% of the Moon is Illuminated
Mar 16
Waxing Crescent
Mar 19
First Quarter
Mar 27
Full
Apr 2
Last Quarter
Apr 10
New

Hourly Weather History & Observations

Time (CDT) Temp. Dew Point Humidity Pressure Visibility Wind Dir Wind Speed Gust Speed Precip Events Conditions
12:53 AM 66.9 °F 43.0 °F 42% 29.81 in 10.0 mi Calm Calm - N/A   Clear
1:53 AM 66.0 °F 42.1 °F 42% 29.80 in 10.0 mi Calm Calm - N/A   Clear
2:53 AM 64.0 °F 43.0 °F 46% 29.80 in 10.0 mi SW 3.5 mph - N/A   Clear
3:53 AM 57.0 °F 44.1 °F 62% 29.80 in 10.0 mi Calm Calm - N/A   Clear
4:53 AM 59.0 °F 45.0 °F 60% 29.79 in 10.0 mi SW 3.5 mph - N/A   Clear
5:53 AM 53.1 °F 45.0 °F 74% 29.81 in 10.0 mi NE 4.6 mph - N/A   Clear
6:53 AM 52.0 °F 46.0 °F 80% 29.82 in 10.0 mi NE 3.5 mph - N/A   Clear
7:53 AM 52.0 °F 45.0 °F 77% 29.82 in 10.0 mi Calm Calm - N/A   Clear
8:53 AM 57.9 °F 48.0 °F 70% 29.83 in 10.0 mi NE 3.5 mph - N/A   Clear
9:53 AM 64.9 °F 50.0 °F 58% 29.85 in 10.0 mi ENE 5.8 mph - N/A   Clear
10:53 AM 71.1 °F 48.9 °F 45% 29.84 in 10.0 mi South 9.2 mph - N/A   Clear
11:53 AM 73.0 °F 48.9 °F 42% 29.84 in 10.0 mi West 4.6 mph - N/A   Clear
12:53 PM 75.9 °F 50.0 °F 40% 29.82 in 10.0 mi South 6.9 mph - N/A   Clear
1:53 PM 78.1 °F 50.0 °F 37% 29.80 in 10.0 mi Calm Calm - N/A   Clear
2:53 PM 80.1 °F 48.9 °F 34% 29.75 in 10.0 mi Variable 4.6 mph - N/A   Clear
3:53 PM 81.0 °F 48.9 °F 33% 29.72 in 10.0 mi Calm Calm - N/A   Clear
4:53 PM 82.0 °F 50.0 °F 33% 29.71 in 10.0 mi Calm Calm - N/A   Clear
5:53 PM 82.0 °F 50.0 °F 33% 29.70 in 10.0 mi WSW 3.5 mph - N/A   Clear
6:53 PM 79.0 °F 50.0 °F 36% 29.71 in 10.0 mi SW 6.9 mph - N/A   Clear
7:53 PM 73.9 °F 51.1 °F 45% 29.73 in 10.0 mi South 5.8 mph - N/A   Clear
8:53 PM 71.1 °F 52.0 °F 51% 29.74 in 10.0 mi South 3.5 mph - N/A   Clear
9:53 PM 71.1 °F 51.1 °F 49% 29.75 in 10.0 mi SSE 4.6 mph - N/A   Scattered Clouds
10:53 PM 70.0 °F 51.1 °F 51% 29.75 in 10.0 mi SSE 4.6 mph - N/A   Overcast
11:53 PM 70.0 °F 51.1 °F 51% 29.76 in 10.0 mi SSE 4.6 mph - N/A   Overcast